Location: Shepherdstown, WV
(39.4326°N, 77.8042°W)
Time: 04:31:16
(UTC-04:00)

Vanguard 3 - Pass Details

Date: 10 August 2021
Orbit: 510 x 3260 km, 33.3° (Epoch: 21 September)

Event Time Altitude Azimuth Distance (km) Brightness Sun altitude
Rises 20:07:01 0° 274° (W) 5,241 13.2 0.2°
Reaches altitude 10° 20:09:59 10° 271° (W) 4,551 12.5 -0.3°
Maximum altitude 20:23:34 61° 195° (SSW) 3,116 10.1 -2.7°
Drops below altitude 10° 20:42:49 10° 122° (ESE) 6,192 11.0 -6.1°
Enters shadow 20:44:26 - 121° (ESE) 6,514 11.0 -6.4°
Sets 20:47:41 0° 119° (ESE) 7,158 - -7.0°
